Location: Heilbronn
(49.1548°N, 9.2780°E)
Time: 17:01:35
(UTC+01:00)

ISS - Pass Details

Date: 28 March 2017
Orbit: 399 x 409 km, 51.6° (Epoch: 25 March)

Event Time Altitude Azimuth Distance (km) Brightness Sun altitude
Rises 22:32:04 0° 250° (WSW) 2,311 0.4 -25.2°
Reaches altitude 10° 22:34:09 10° 251° (WSW) 1,456 -0.7 -25.5°
Enters shadow 22:34:28 12° 251° (WSW) 1,324 -0.9 -25.5°
